Flughafen Wetterinformationen

LTBA 041750Z 17003KT CAVOK 19/14 Q1013 NOSIG

VATSIM Feed

Card image cap

ATC Buchungen

Es wurde keine Position gebucht

Card image cap

Aktive Flugsicherung

Derzeit sind keine Fluglotsen Online

Blog

Read our latest news and get to know us better.